Regional Weather Roundup
Issued by NWS Sterling, VA

Home | Current Version | Previous Version | Graphics & Text | Print | Product List | Glossary On
Versions: 1 2 3 4 5 6 7 8 9 10 11 12 13 14 15 16 17 18 19 20 21 22 23 24 25 26 27 28 29 30 31 32 33 34 35 36 37 38 39 40 41 42 43 44 45 46 47 48 49 50
580
ASUS41 KLWX 051010
RWRLWX

REGIONAL WEATHER ROUNDUP
NATIONAL WEATHER SERVICE BALTIMORE MD/WASHINGTON DC
600 AM EDT THU MAY 05 2016

Note: "FAIR" indicates few or no clouds below 12,000 feet
with no significant weather and/or obstructions to visibility.
 TC=TEMPERATURE CELSIUS

 * =Non NWS site. Station does not report precipitation (e.g. rain,
    snow, etc.), thunder, or fog.

DCZ001-MDZ009-015-VAZ040>042-051-053>054-051100-
WASHINGTON METRO

CITY           SKY/WX    TMP DP  RH WIND       PRES   REMARKS
WASHINGTON NAT DRIZZLE   51  48  89 NE10      29.65F
DULLES         CLOUDY    50  48  93 NE6       29.64F FOG
ANDREWS AFB    CLOUDY    49  47  94 NE9       29.63F
FT BELVOIR     CLOUDY    50  48  93 VRB3      29.64S
QUANTICO       CLOUDY    53  50  89 E15       29.64F
COLLEGE PARK*  CLOUDY    48  46  93 CALM      29.64F
LEESBURG*      CLOUDY    52  52 100 NE3       29.65F
MANASSAS*      CLOUDY    52  50  93 NE6       29.63F
GAITHERSBURG*  CLOUDY    48  45  87 E3        29.69S

$$

MDZ006>007-011-014-051100-
BALTIMORE METRO

CITY           SKY/WX    TMP DP  RH WIND       PRES   REMARKS
BWI AIRPORT    DRIZZLE   50  48  93 NE10      29.64F FOG
MD SCIENCE CTR   N/A     51  47  86 MISG      29.65F
MARTIN STATE   CLOUDY    52  52 100 N6        29.66F FOG
ANNAPOLIS      CLOUDY    50  48  93 NE7       29.64F
FORT MEADE*    CLOUDY    48  46  93 NE3       29.66F

$$

MDZ012-015-019>023-051100-
MARYLAND EASTERN SHORE

CITY           SKY/WX    TMP DP  RH WIND       PRES   REMARKS
OCEAN CITY     CLOUDY    49  46  90 NE14G23   29.63S
SALISBURY      CLOUDY    49  46  90 NE9       29.63R
CAMBRIDGE*     CLOUDY    48  46  93 NE5       29.63S
EASTON*        CLOUDY   N/A N/A N/A NE9       29.67F

$$

MDZ017>025-051100-
SOUTHERN MARYLAND

CITY           SKY/WX    TMP DP  RH WIND       PRES   REMARKS
PATUXENT RIVER CLOUDY    50  46  86 NE14      29.62F
ST INIGOES     CLOUDY    51  48  89 NE5       29.61S
LEONARDTOWN*   CLOUDY    50  45  81 NE3       29.63F

$$

MDZ003>005-051100-
NORTH CENTRAL MARYLAND

CITY           SKY/WX    TMP DP  RH WIND       PRES   REMARKS
FREDERICK*     CLOUDY    50  50 100 NE3       29.68F
HAGERSTOWN APT CLOUDY    50  46  86 NE7       29.66F
WESTMINSTER*   CLOUDY    48  28  46 NE3       29.65F HAZE

$$

MDZ501>502-051100-
WESTERN MARYLAND

CITY           SKY/WX    TMP DP  RH WIND       PRES   REMARKS
OAKLAND*       FOG       41  41 100 CALM      29.64S VSB 1/4
CUMBERLAND*    CLOUDY    52  52 100 NE5       29.69S

$$

VAZ025>031-051100-
SHENANDOAH VALLEY

CITY           SKY/WX    TMP DP  RH WIND       PRES   REMARKS
WINCHESTER*    RAIN      50  48  93 CALM      29.64F
FRONT ROYAL*   CLOUDY    50  50 100 NE5       29.63S
LURAY*         CLOUDY    52  52 100 N5        29.62R
NEW MARKET*    CLOUDY    51  50  97 N5        29.61S
STAUNTON*      DRIZZLE   53  53 100 NE3       29.62F
WAYNESBORO*    CLOUDY    50  49  96 N5        29.60F

$$

WVZ021-048>050-054>055-051100-
EASTERN WEST VIRGINIA PANHANDLE

CITY           SKY/WX    TMP DP  RH WIND       PRES   REMARKS
MARTINSBURG    CLOUDY    50  48  93 CALM      29.65F
PETERSBURG*    CLOUDY    53  50  89 CALM      29.64S

$$

VAZ036>039-050-051100-
CENTRAL FOOTHILLS

CITY           SKY/WX    TMP DP  RH WIND       PRES   REMARKS
CHARLOTTESVILL LGT RAIN  53  50  89 NE9       29.61F FOG
CULPEPER*      CLOUDY    51  50  96 NE3       29.64S
ORANGE*        CLOUDY    52  52 100 NE6       29.63F FOG
GORDONSVILLE*  CLOUDY    52  51  99 NE7       29.62R FOG
WARRENTON*     CLOUDY    51  46  83 NE5       29.63S

$$

VAZ055>057-051100-
NORTH AND CENTRAL PIEDMONT

CITY           SKY/WX    TMP DP  RH WIND       PRES   REMARKS
FREDERICKSBRG* CLOUDY    52  52 100 NE6       29.62S
STAFFORD*      CLOUDY    50  48  93 NE8       29.66F

$$

NCZ024-NYZ072-PAZ021-071-VAZ022-071-051100-
OTHER REGIONAL OBSERVATIONS

CITY           SKY/WX    TMP DP  RH WIND       PRES   REMARKS
NEW YORK CITY  CLOUDY    47  41  80 NE8       29.72F
PHILADELPHIA   CLOUDY    50  43  77 N14       29.67F
PITTSBURGH     CLOUDY    50  46  86 NW6       29.66S FOG
ROANOKE        LGT RAIN  51  48  89 NW6       29.62F
RICHMOND       DRIZZLE   52  51  97 E7        29.60S
RALEIGH        FOG       55  54  96 E5        29.55S VSB 1/4

$$

ANZ530>537-051100-
MARINE OBSERVATIONS

STATION/POSITION TIME  TEMP    WIND        PRES
                       AIR SEA DIR/SP/G
                 (UTC) (F)     (DEG/KT/KT) (MB)
THOMAS PT LIGHT  1000   50 58   50/ 13/ 15 1004.8F
BALT KEY BRIDGE  0900   50      10/  8/  9 1004.5F
COVE POINT       0900   49      80/ 12/ 15 1004.1F
LEWISETTA        0900   52 62   50/  8/ 13 1002.8F
SOLOMONS ISLAND  0900   51 61   40/  7/  9   N/A
PINEY POINT      0900           60/  7/ 10   N/A

$$





USA.gov is the U.S. government's official web portal to all federal, state and local government web resources and services.